User: anonymous   Login
Location: Unspecified
(0.0000°N, 0.0000°E)
Time: 19:04:21
(UTC+00:00)
Language:

NAVSTAR 65 (USA 213) - Orbit

View from above orbital plane
View from above orbital plane
View from above satellite
View from above satellite

Ground track
Ground track

The orbit data is extracted from the following two-line orbital elements,

1 36585U 10022A   17176.10367042 -.00000078 +00000-0 +00000-0 0  9993
2 36585 055.9802 340.3112 0063497 045.7958 173.6419 02.00575544051828
Epoch (UTC): 25 June 2017 02:29:17
Eccentricity: 0.0063497
inclination: 55.9802°
perigee height: 20012 km
apogee height: 20349 km
right ascension of ascending node: 340.3112°
argument of perigee: 45.7958°
revolutions per day: 2.00575544
mean anomaly at epoch: 173.6419°
orbit number at epoch: 5182

The dashed part of the orbit path shows where the satellite is in the earth's shadow,  

DLR